Cosmos 2084 Rocket - Orbit

View from above orbital plane
View from above orbital plane
View from above satellite
View from above satellite

Ground track
Ground track

The orbit data is extracted from the following two-line orbital elements,

1 20666U 90055D   13141.15824453  .00000689  00000-0  91433-4 0  8650
2 20666 062.7896 065.6176 0045703 206.4029 153.4735 14.88577279239373
Epoch (UTC): 21 May 2013 03:47:52
Eccentricity: 0.0045703
inclination: 62.7896°
perigee height: 570 km
apogee height: 634 km
right ascension of ascending node: 65.6176°
argument of perigee: 206.4029°
revolutions per day: 14.88577279
mean anomaly at epoch: 153.4735°
orbit number at epoch: 23937

The dashed part of the orbit path shows where the satellite is in the earth's shadow,  

Developed and maintained by Chris Peat, Heavens-Above GmbH. Please read the updated FAQ before sending e-mail. Imprint. DLR